QPF
0.01 0.01 0.03 0.02 0.00 0.00 0.00 0.00 0.00 0.00 0.00 0.00 0.00 0.00 0.00 0.00 0.00 0.00 0.00 0.00 0.00 0.00 0.00 0.00 0.00 0.00 0.00 0.00 0.00 0.00 0.00 0.00 0.00 0.00 0.00 0.00 0.00 0.00 0.00 0.00 0.00 0.00 0.00
0.01 0.02 0.02 0.01 0.00 0.00 0.00 0.00 0.00 0.00 0.00 0.00 0.00 0.00 0.00 0.00 0.00 0.00 0.00 0.00 0.00 0.01 0.01 0.00 0.00 0.00 0.00 0.00 0.00 0.00 0.00 0.00 0.00 0.00 0.00 0.00 0.00 0.00 0.00 0.00 0.00 0.00 0.00
0.00 0.00 0.00 0.00 0.00 0.00 0.00 0.00 0.00 0.00 0.00 0.00 0.00 0.00 0.00 0.00 0.00 0.00 0.00 0.00 0.00 0.00 0.01 0.01 0.00 0.00 0.00 0.00 0.00 0.00 0.00 0.00 0.00 0.00 0.00 0.00 0.00 0.00 0.00 0.00 0.00 0.00 0.00
0.00 0.00 0.00 0.00 0.00 0.00 0.00 0.00 0.00 0.00 0.00 0.00 0.00 0.00 0.00 0.00 0.00 0.00 0.00 0.00 0.00 0.00 0.00 0.00 0.01 0.01 0.00 0.00 0.00 0.00 0.00 0.00 0.00 0.00 0.00 0.00 0.00 0.00 0.00 0.00 0.00 0.00 0.00
0.00 0.00 0.00 0.00 0.00 0.00 0.00 0.00 0.00 0.00 0.00 0.00 0.00 0.00 0.00 0.00 0.00 0.00 0.00 0.00 0.00 0.00 0.00 0.00 0.00 0.00 0.01 0.00 0.00 0.00 0.00 0.00 0.00 0.00 0.00 0.00 0.00 0.00 0.00 0.00 0.00 0.00 0.00
0.00 0.00 0.00 0.00 0.00 0.00 0.00 0.00 0.00 0.00 0.00 0.00 0.00 0.00 0.00 0.00 0.00 0.00 0.00 0.00 0.00 0.00 0.00 0.00 0.00 0.00 0.00 0.00 0.00 0.00 0.00 0.00 0.00 0.00 0.00 0.00 0.00 0.00 0.00 0.00 0.00 0.00 0.00
0.00 0.00 0.00 0.00 0.00 0.00 0.00 0.00 0.00 0.00 0.00 0.00 0.00 0.00 0.00 0.00 0.00 0.00 0.00 0.00 0.00 0.00 0.00 0.00 0.00 0.00 0.00 0.00 0.00 0.00 0.00 0.00 0.01 0.00 0.00 0.00 0.00 0.00 0.00 0.00 0.00 0.00 0.00
0.00 0.00 0.00 0.00 0.00 0.00 0.00 0.00 0.00 0.00 0.00 0.00 0.00 0.00 0.00 0.00 0.00 0.00 0.00 0.00 0.00 0.00 0.00 0.00 0.00 0.00 0.00 0.00 0.00 0.00 0.00 0.00 0.00 0.01 0.01 0.00 0.00 0.00 0.00 0.00 0.00 0.00 0.00
0.01 0.00 0.00 0.00 0.00 0.00 0.01 0.00 0.00 0.00 0.00 0.00 0.00 0.00 0.01 0.00 0.00 0.00 0.00 0.00 0.00 0.00 0.00 0.00 0.00 0.00 0.00 0.00 0.00 0.00 0.00 0.00 0.00 0.00 0.00 0.01 0.00 0.00 0.00 0.00 0.00 0.00 0.00
0.04 0.02 0.00 0.00 0.00 0.00 0.02 0.02 0.00 0.00 0.02 0.03 0.01 0.01 0.00 0.02 0.03 0.04 0.00 0.00 0.00 0.00 0.00 0.00 0.00 0.00 0.00 0.00 0.00 0.00 0.00 0.00 0.00 0.00 0.00 0.00 0.00 0.00 0.00 0.00 0.00 0.01 0.00
0.02 0.05 0.02 0.01 0.03 0.01 0.04 0.06 0.03 0.00 0.01 0.11 0.06 0.00 0.00 0.00 0.00 0.03 0.02 0.00 0.00 0.00 0.00 0.00 0.00 0.00 0.00 0.00 0.00 0.00 0.00 0.00 0.00 0.00 0.00 0.00 0.00 0.00 0.00 0.00 0.00 0.01 0.02
0.01 0.02 0.02 0.02 0.03 0.04 0.06 0.02 0.02 0.00 0.01 0.01 0.08 0.03 0.03 0.01 0.00 0.00 0.00 0.00 0.00 0.00 0.00 0.00 0.00 0.00 0.00 0.00 0.00 0.00 0.00 0.00 0.00 0.00 0.00 0.00 0.00 0.00 0.00 0.00 0.00 0.00 0.00
0.00 0.00 0.01 0.00 0.02 0.03 0.05 0.04 0.01 0.00 0.02 0.03 0.05 0.06 0.04 0.03 0.01 0.00 0.00 0.00 0.00 0.00 0.00 0.00 0.00 0.00 0.00 0.00 0.00 0.00 0.00 0.00 0.00 0.00 0.00 0.00 0.00 0.00 0.00 0.00 0.00 0.00 0.00
0.00 0.00 0.00 0.00 0.00 0.00 0.01 0.02 0.01 0.00 0.01 0.03 0.03 0.03 0.04 0.03 0.02 0.01 0.00 0.00 0.00 0.00 0.00 0.00 0.00 0.00 0.00 0.00 0.00 0.00 0.00 0.00 0.00 0.00 0.00 0.00 0.00 0.00 0.00 0.00 0.00 0.00 0.00
0.00 0.00 0.00 0.00 0.00 0.00 0.00 0.00 0.00 0.00 0.00 0.01 0.02 0.02 0.04 0.03 0.03 0.01 0.01 0.00 0.00 0.00 0.00 0.00 0.00 0.00 0.00 0.00 0.00 0.00 0.00 0.00 0.00 0.00 0.00 0.00 0.00 0.00 0.00 0.00 0.00 0.00 0.00
0.00 0.00 0.00 0.00 0.00 0.00 0.00 0.00 0.00 0.00 0.00 0.00 0.01 0.01 0.02 0.02 0.03 0.03 0.01 0.00 0.00 0.00 0.00 0.00 0.00 0.00 0.00 0.00 0.00 0.00 0.00 0.00 0.00 0.00 0.00 0.00 0.00 0.00 0.00 0.00 0.00 0.00 0.00
0.00 0.00 0.00 0.00 0.00 0.00 0.00 0.00 0.00 0.00 0.00 0.00 0.01 0.01 0.02 0.03 0.04 0.04 0.01 0.00 0.00 0.00 0.00 0.00 0.00 0.00 0.00 0.00 0.00 0.00 0.00 0.00 0.00 0.00 0.00 0.00 0.00 0.00 0.00 0.00 0.00 0.00 0.00
0.00 0.00 0.00 0.00 0.00 0.00 0.00 0.00 0.00 0.00 0.00 0.00 0.00 0.02 0.02 0.01 0.02 0.01 0.01 0.00 0.00 0.00 0.01 0.01 0.00 0.00 0.00 0.00 0.00 0.00 0.00 0.00 0.00 0.00 0.00 0.00 0.00 0.00 0.00 0.00 0.00 0.00 0.00
0.00 0.00 0.00 0.00 0.00 0.00 0.00 0.00 0.00 0.00 0.00 0.00 0.00 0.00 0.00 0.00 0.01 0.00 0.00 0.00 0.00 0.01 0.01 0.00 0.00 0.00 0.00 0.00 0.00 0.00 0.00 0.00 0.00 0.00 0.00 0.00 0.00 0.00 0.00 0.00 0.00 0.00 0.00
0.00 0.00 0.00 0.00 0.00 0.00 0.00 0.00 0.00 0.00 0.00 0.00 0.00 0.00 0.00 0.00 0.00 0.00 0.00 0.00 0.00 0.00 0.00 0.00 0.00 0.00 0.00 0.00 0.00 0.00 0.00 0.00 0.00 0.00 0.00 0.00 0.00 0.00 0.00 0.00 0.00 0.00 0.00
0.00 0.00 0.00 0.00 0.00 0.00 0.00 0.00 0.00 0.00 0.00 0.00 0.00 0.00 0.00 0.00 0.00 0.00 0.00 0.00 0.00 0.00 0.00 0.00 0.00 0.00 0.00 0.00 0.00 0.00 0.00 0.00 0.00 0.00 0.00 0.00 0.00 0.00 0.00 0.00 0.00 0.00 0.00
0.00 0.00 0.00 0.00 0.00 0.00 0.00 0.00 0.00 0.00 0.00 0.00 0.00 0.00 0.00 0.00 0.00 0.01 0.01 0.00 0.00 0.00 0.00 0.00 0.00 0.00 0.00 0.00 0.00 0.00 0.00 0.00 0.00 0.00 0.00 0.00 0.00 0.00 0.00 0.00 0.00 0.00 0.00
0.00 0.00 0.00 0.00 0.00 0.00 0.00 0.00 0.00 0.00 0.00 0.00 0.00 0.00 0.00 0.00 0.00 0.00 0.00 0.00 0.00 0.00 0.00 0.00 0.00 0.00 0.00 0.00 0.00 0.00 0.00 0.00 0.00 0.00 0.00 0.00 0.00 0.00 0.00 0.00 0.00 0.00 0.00
0.00 0.00 0.00 0.00 0.00 0.00 0.01 0.01 0.02 0.02 0.01 0.01 0.01 0.01 0.01 0.01 0.01 0.01 0.01 0.00 0.00 0.00 0.00 0.00 0.00 0.00 0.00 0.00 0.00 0.00 0.00 0.00 0.00 0.00 0.00 0.00 0.00 0.00 0.00 0.00 0.00 0.00 0.00
0.00 0.00 0.00 0.00 0.00 0.02 0.01 0.02 0.02 0.01 0.01 0.00 0.01 0.01 0.01 0.01 0.01 0.01 0.01 0.00 0.00 0.00 0.00 0.00 0.00 0.00 0.00 0.00 0.00 0.00 0.00 0.00 0.00 0.00 0.00 0.00 0.00 0.00 0.00 0.00 0.00 0.00 0.00
0.00 0.00 0.00 0.00 0.01 0.01 0.00 0.01 0.01 0.00 0.01 0.00 0.00 0.00 0.00 0.01 0.00 0.00 0.00 0.00 0.00 0.00 0.00 0.00 0.00 0.00 0.00 0.00 0.00 0.00 0.00 0.00 0.00 0.00 0.00 0.00 0.00 0.00 0.00 0.00 0.00 0.00 0.00
MSLP
1015.97 1016.62 1017.54 1018.07 1018.54 1018.76 1019.48 1019.79 1019.33 1019.76 1020.40 1020.77 1021.06 1021.09 1020.95 1020.96 1021.50 1022.59 1023.93 1024.82 1024.92 1025.30 1025.56 1026.04 1026.33 1026.85 1027.26 1027.41 1027.69 1027.95 1028.03 1028.24 1028.50 1028.73 1028.90 1028.98 1029.02 1029.21 1029.35 1029.40 1029.45 1029.56 1029.66
1016.50 1016.68 1017.31 1017.74 1018.07 1018.22 1018.81 1019.11 1018.98 1019.67 1020.39 1020.63 1021.08 1021.10 1021.21 1021.49 1021.61 1022.29 1023.53 1024.80 1025.01 1025.35 1025.48 1025.76 1026.04 1026.55 1026.87 1027.22 1027.41 1027.89 1027.99 1028.21 1028.36 1028.67 1028.92 1029.06 1029.15 1029.33 1029.48 1029.59 1029.61 1029.73 1029.74
1016.48 1016.38 1016.63 1017.12 1017.45 1017.58 1018.20 1018.51 1019.24 1019.63 1020.16 1020.42 1020.81 1021.22 1021.39 1021.71 1021.82 1021.96 1022.89 1023.94 1024.82 1025.32 1025.37 1025.70 1025.91 1026.41 1026.72 1027.07 1027.38 1027.69 1027.90 1028.01 1028.21 1028.55 1028.86 1029.16 1029.32 1029.43 1029.52 1029.78 1029.80 1029.79 1029.72
1016.97 1016.79 1016.63 1017.06 1017.42 1017.50 1017.91 1018.40 1019.10 1019.44 1019.81 1020.02 1020.50 1021.17 1021.25 1021.63 1021.98 1022.16 1022.16 1022.90 1023.77 1024.36 1025.22 1025.46 1025.74 1026.00 1026.27 1026.64 1026.95 1027.27 1027.48 1027.72 1028.05 1028.31 1028.59 1028.88 1029.15 1029.38 1029.54 1029.69 1029.81 1029.68 1029.54
1017.18 1017.04 1016.80 1017.32 1017.70 1017.76 1018.17 1018.59 1018.99 1019.36 1019.74 1019.83 1020.23 1020.80 1020.89 1021.38 1021.98 1022.06 1022.26 1022.75 1023.08 1023.48 1024.05 1024.96 1025.42 1025.78 1026.07 1026.14 1026.44 1026.77 1026.99 1027.31 1027.66 1027.95 1028.19 1028.52 1028.78 1029.07 1029.34 1029.55 1029.57 1029.46 1029.39
1017.09 1017.46 1017.09 1017.82 1018.11 1018.46 1018.64 1019.03 1019.14 1019.49 1019.65 1019.70 1019.87 1020.63 1020.93 1021.24 1021.66 1021.86 1022.23 1022.65 1022.86 1023.35 1023.40 1023.92 1024.95 1025.32 1025.78 1025.95 1026.17 1026.27 1026.32 1026.68 1027.18 1027.54 1027.80 1028.07 1028.42 1028.69 1028.94 1029.10 1029.05 1029.12 1029.06
1016.92 1016.94 1017.55 1018.22 1018.33 1018.50 1018.63 1019.03 1019.41 1019.77 1019.80 1020.03 1019.90 1020.48 1021.13 1021.51 1021.55 1021.66 1021.98 1022.26 1022.57 1023.07 1023.28 1023.35 1023.76 1024.32 1024.65 1025.15 1025.50 1025.67 1025.84 1025.91 1026.28 1026.62 1026.99 1027.51 1027.83 1028.08 1028.31 1028.52 1028.61 1028.70 1028.60
1016.35 1016.72 1017.15 1017.86 1018.39 1018.17 1018.56 1019.09 1019.43 1019.66 1019.70 1020.05 1019.92 1020.54 1020.74 1021.19 1021.33 1021.56 1021.61 1021.93 1022.12 1022.31 1022.65 1022.98 1023.44 1023.32 1023.26 1024.02 1024.55 1024.97 1025.09 1025.20 1025.28 1025.66 1026.06 1026.49 1026.87 1027.21 1027.48 1027.76 1027.95 1028.18 1028.25
1015.51 1016.36 1016.92 1017.30 1017.86 1017.93 1018.28 1018.89 1019.32 1019.17 1019.22 1019.89 1020.09 1019.83 1019.71 1019.44 1019.71 1020.53 1021.35 1021.50 1021.67 1022.04 1022.13 1022.34 1022.82 1023.17 1023.21 1023.15 1023.21 1023.99 1024.46 1024.67 1024.79 1024.77 1024.98 1025.41 1025.86 1026.25 1026.56 1026.88 1027.11 1027.33 1027.51
1015.65 1016.10 1016.28 1017.24 1017.63 1017.68 1018.09 1018.59 1018.88 1019.01 1019.11 1019.38 1020.00 1020.09 1019.76 1019.95 1019.25 1020.05 1020.40 1021.04 1021.39 1021.87 1022.41 1022.66 1022.64 1022.80 1022.99 1022.89 1022.57 1022.71 1023.25 1023.88 1024.18 1024.35 1024.50 1024.68 1024.97 1025.20 1025.43 1025.83 1026.03 1026.16 1026.32
1015.95 1016.18 1016.62 1017.63 1017.64 1017.44 1017.77 1017.97 1018.41 1018.88 1018.90 1019.35 1019.58 1019.71 1019.87 1019.78 1019.82 1019.93 1020.13 1020.53 1021.29 1021.64 1022.12 1022.80 1022.76 1022.67 1022.54 1022.25 1021.88 1022.02 1022.78 1023.44 1023.82 1023.86 1023.92 1024.04 1024.37 1024.62 1024.81 1025.00 1025.10 1025.17 1025.20
1015.40 1015.98 1016.52 1016.61 1016.98 1017.41 1017.66 1017.66 1018.28 1018.62 1018.73 1018.93 1019.09 1019.03 1019.28 1019.22 1019.21 1019.36 1019.66 1019.83 1020.50 1021.19 1021.65 1021.89 1021.95 1022.17 1021.85 1021.26 1021.31 1021.52 1022.08 1022.52 1023.04 1023.17 1023.48 1023.78 1024.06 1024.20 1024.39 1024.60 1024.66 1024.67 1024.56
1014.45 1014.84 1015.47 1015.77 1016.25 1016.82 1017.41 1017.53 1017.57 1017.92 1018.07 1018.23 1018.48 1018.71 1018.88 1018.88 1018.71 1018.62 1018.98 1019.53 1019.84 1020.26 1020.90 1020.95 1020.89 1020.46 1020.47 1020.30 1020.44 1020.99 1021.75 1022.00 1022.50 1022.98 1023.18 1023.40 1023.65 1023.91 1024.10 1024.24 1024.29 1024.22 1024.13
1013.59 1014.22 1014.71 1014.96 1015.33 1015.95 1016.53 1017.51 1017.03 1017.43 1017.37 1017.52 1017.88 1017.97 1018.32 1018.39 1018.28 1018.32 1018.53 1019.24 1019.32 1019.72 1019.95 1019.75 1020.04 1020.07 1019.59 1019.64 1019.82 1020.26 1020.74 1021.53 1022.05 1022.45 1022.71 1022.98 1023.14 1023.43 1023.59 1023.77 1023.81 1023.76 1023.80
1013.09 1013.50 1013.88 1014.20 1014.37 1014.86 1015.44 1016.04 1016.29 1016.20 1016.14 1016.48 1016.73 1017.26 1017.54 1017.80 1017.76 1017.81 1017.80 1018.28 1018.51 1018.62 1018.32 1018.53 1018.76 1018.48 1018.52 1018.76 1019.21 1020.01 1020.63 1020.98 1021.46 1021.92 1022.12 1022.59 1022.86 1022.93 1023.06 1023.28 1023.29 1023.32 1023.40
1012.03 1012.33 1012.73 1013.34 1013.77 1013.99 1014.28 1014.66 1015.01 1015.21 1015.39 1015.47 1016.05 1016.28 1016.60 1016.75 1016.81 1016.99 1016.99 1017.54 1018.04 1017.86 1017.37 1017.96 1017.75 1017.34 1017.53 1018.22 1018.76 1019.39 1019.52 1020.18 1020.73 1021.04 1021.54 1021.80 1022.11 1022.34 1022.65 1022.78 1022.89 1022.96 1023.03
1011.01 1011.46 1012.03 1012.59 1012.79 1013.11 1013.53 1013.65 1013.67 1014.02 1014.29 1014.64 1014.80 1014.92 1015.22 1015.46 1015.45 1015.79 1016.33 1016.68 1017.12 1017.68 1017.46 1017.15 1017.08 1017.22 1017.47 1018.18 1018.74 1018.99 1019.16 1019.42 1019.61 1020.05 1020.53 1020.85 1021.33 1021.83 1022.19 1022.36 1022.43 1022.47 1022.55
1009.66 1010.05 1010.56 1011.21 1011.56 1011.82 1012.32 1012.55 1012.70 1012.78 1013.08 1013.21 1013.35 1013.78 1013.87 1014.14 1014.26 1014.71 1015.46 1015.97 1016.41 1016.69 1016.67 1016.86 1017.09 1016.93 1017.16 1017.38 1017.83 1018.38 1018.63 1018.72 1018.73 1018.95 1019.78 1020.39 1020.78 1021.08 1021.43 1021.60 1021.65 1021.70 1021.82
1008.32 1008.94 1009.23 1009.52 1009.80 1010.26 1010.72 1011.03 1011.29 1011.51 1011.77 1011.85 1011.96 1012.06 1012.22 1012.59 1013.14 1013.87 1014.41 1014.85 1015.27 1015.82 1016.13 1016.02 1016.48 1017.00 1017.43 1017.73 1017.44 1018.08 1018.29 1018.80 1018.28 1018.84 1019.45 1020.05 1020.31 1020.47 1020.68 1020.83 1020.98 1021.11 1021.14
1007.10 1007.59 1008.03 1008.44 1008.85 1009.26 1009.61 1009.93 1010.17 1010.30 1010.42 1010.54 1010.83 1011.09 1011.24 1011.46 1012.09 1012.88 1013.16 1013.81 1013.74 1014.23 1014.76 1015.25 1015.65 1016.26 1016.73 1017.34 1017.77 1017.74 1018.22 1018.00 1017.88 1017.74 1018.06 1018.72 1019.22 1019.84 1020.09 1020.22 1020.25 1020.29 1020.36
1005.82 1006.25 1006.72 1007.14 1007.58 1007.93 1008.07 1008.42 1008.73 1008.97 1009.22 1009.43 1009.72 1009.87 1010.11 1010.79 1011.49 1011.87 1012.18 1012.59 1012.99 1013.10 1013.49 1013.95 1014.84 1015.80 1016.31 1016.64 1016.46 1016.61 1017.13 1017.37 1017.50 1017.36 1017.82 1018.18 1018.43 1018.59 1018.64 1019.24 1019.24 1019.18 1019.40
1004.78 1005.32 1005.50 1005.72 1006.08 1006.27 1006.47 1007.03 1007.67 1007.78 1008.00 1008.14 1008.51 1009.02 1009.61 1010.18 1010.35 1010.76 1011.23 1011.36 1011.15 1011.81 1012.33 1013.10 1013.64 1014.18 1015.03 1015.90 1016.05 1016.77 1017.28 1017.36 1017.48 1017.19 1017.43 1017.77 1018.15 1018.09 1018.20 1018.17 1018.12 1018.37 1018.71
1003.97 1004.11 1004.46 1004.87 1005.03 1005.39 1005.72 1006.35 1006.98 1007.47 1007.54 1007.44 1007.60 1008.03 1008.33 1008.68 1009.51 1010.10 1010.63 1010.98 1011.50 1011.92 1012.49 1012.90 1013.70 1014.57 1015.08 1015.08 1016.27 1017.33 1017.64 1017.69 1017.41 1017.17 1017.27 1017.52 1018.01 1017.73 1017.66 1017.45 1017.73 1018.08 1018.28
1002.73 1003.26 1003.71 1004.18 1004.58 1004.44 1004.92 1005.58 1006.27 1006.91 1006.97 1006.83 1007.04 1007.24 1007.48 1008.13 1008.86 1009.61 1010.40 1011.71 1012.36 1012.98 1013.08 1013.34 1014.02 1015.15 1015.70 1015.97 1016.66 1017.28 1017.70 1017.77 1017.71 1017.64 1018.07 1017.80 1017.88 1017.45 1017.11 1017.36 1017.53 1017.68 1017.67
1002.05 1002.50 1003.22 1003.88 1004.11 1004.22 1004.96 1005.05 1006.02 1006.43 1006.93 1007.60 1008.09 1008.05 1008.12 1008.76 1009.35 1009.99 1011.02 1012.32 1013.14 1013.96 1014.85 1015.36 1015.56 1015.20 1016.31 1016.32 1017.83 1017.49 1018.04 1018.23 1017.99 1018.01 1017.84 1017.76 1017.58 1017.39 1017.14 1017.11 1017.22 1017.17 1017.31
1001.76 1002.67 1003.45 1004.80 1005.30 1005.24 1005.76 1005.89 1006.17 1006.85 1007.75 1008.69 1009.47 1009.71 1009.82 1010.07 1010.79 1011.28 1011.73 1012.35 1013.42 1014.77 1015.39 1016.23 1016.80 1016.89 1017.44 1017.90 1018.02 1017.75 1017.41 1017.84 1018.34 1018.21 1018.00 1018.41 1018.07 1017.94 1017.22 1016.66 1016.61 1016.69 1016.87
Thickness
5624 5623 5618 5617 5617 5619 5619 5621 5626 5624 5618 5615 5615 5618 5620 5620 5616 5609 5600 5595 5597 5595 5595 5591 5592 5588 5587 5587 5586 5583 5583 5582 5580 5577 5575 5574 5573 5571 5567 5566 5564 5561 5559
5614 5618 5617 5615 5615 5618 5619 5620 5624 5620 5614 5613 5612 5614 5613 5611 5611 5607 5598 5590 5591 5590 5591 5591 5591 5588 5586 5585 5584 5579 5579 5578 5576 5573 5570 5568 5567 5563 5561 5558 5557 5554 5552
5609 5613 5613 5613 5616 5618 5618 5619 5617 5616 5610 5610 5611 5608 5608 5606 5605 5604 5600 5592 5589 5588 5590 5588 5588 5584 5583 5582 5580 5577 5575 5574 5572 5568 5565 5562 5559 5557 5556 5552 5551 5549 5546
5600 5606 5610 5610 5611 5614 5615 5614 5613 5612 5610 5611 5610 5604 5604 5601 5599 5599 5600 5595 5592 5589 5587 5586 5585 5584 5583 5581 5578 5575 5574 5571 5568 5564 5561 5558 5554 5552 5549 5546 5543 5542 5541
5593 5599 5604 5603 5602 5606 5607 5607 5608 5606 5604 5608 5606 5602 5603 5597 5593 5594 5593 5591 5591 5591 5589 5586 5585 5583 5581 5580 5576 5574 5572 5570 5565 5561 5559 5555 5551 5548 5544 5541 5538 5536 5534
5592 5591 5596 5592 5593 5595 5598 5598 5601 5600 5602 5604 5605 5598 5597 5595 5590 5590 5589 5587 5588 5586 5588 5587 5582 5581 5578 5577 5574 5572 5571 5566 5561 5557 5554 5550 5548 5545 5540 5537 5535 5531 5530
5589 5591 5587 5584 5586 5589 5592 5593 5592 5591 5595 5596 5598 5593 5589 5586 5587 5587 5585 5584 5585 5583 5584 5585 5583 5581 5580 5578 5573 5571 5568 5566 5562 5558 5553 5547 5544 5540 5536 5533 5531 5527 5524
5589 5587 5585 5581 5581 5590 5591 5590 5588 5588 5591 5592 5591 5585 5580 5580 5583 5582 5582 5582 5583 5584 5583 5582 5579 5582 5583 5579 5573 5570 5569 5566 5563 5559 5556 5552 5546 5540 5536 5531 5527 5522 5519
5593 5588 5586 5586 5588 5592 5590 5587 5586 5589 5589 5587 5587 5588 5584 5587 5587 5584 5579 5582 5583 5581 5581 5581 5578 5577 5575 5574 5578 5572 5567 5563 5560 5559 5556 5551 5545 5540 5536 5530 5524 5519 5514
5589 5589 5591 5587 5587 5590 5589 5588 5587 5587 5588 5584 5581 5581 5584 5582 5585 5577 5582 5580 5581 5578 5575 5575 5575 5572 5570 5570 5572 5571 5568 5562 5558 5555 5551 5547 5542 5537 5532 5526 5522 5518 5513
5585 5585 5585 5581 5583 5586 5588 5588 5585 5583 5586 5580 5578 5577 5578 5580 5582 5578 5574 5577 5575 5575 5571 5567 5567 5566 5564 5566 5570 5568 5563 5556 5552 5550 5548 5545 5538 5534 5529 5524 5519 5514 5509
5588 5584 5583 5585 5584 5582 5581 5584 5580 5580 5580 5579 5579 5581 5579 5580 5582 5581 5578 5580 5576 5571 5569 5568 5568 5563 5561 5565 5566 5564 5559 5554 5549 5548 5543 5538 5533 5528 5522 5516 5511 5507 5502
5591 5592 5590 5590 5586 5582 5579 5578 5581 5580 5581 5580 5578 5578 5580 5581 5584 5585 5580 5575 5573 5574 5568 5569 5567 5569 5565 5565 5563 5557 5552 5550 5545 5539 5536 5531 5526 5520 5514 5507 5502 5498 5494
5597 5593 5591 5590 5588 5583 5580 5572 5580 5579 5581 5581 5578 5580 5579 5580 5582 5580 5578 5569 5567 5566 5566 5571 5566 5563 5562 5560 5557 5554 5547 5543 5538 5533 5528 5523 5518 5512 5506 5499 5493 5489 5484
5597 5596 5595 5594 5592 5589 5586 5584 5582 5584 5585 5583 5583 5581 5579 5578 5579 5578 5578 5571 5569 5565 5572 5571 5564 5565 5561 5556 5552 5544 5538 5538 5531 5525 5521 5513 5507 5503 5497 5491 5485 5480 5473
5603 5602 5600 5595 5592 5592 5592 5591 5589 5588 5586 5586 5583 5581 5580 5580 5579 5577 5576 5569 5565 5567 5566 5565 5564 5563 5558 5548 5544 5538 5535 5533 5525 5519 5512 5507 5500 5495 5487 5481 5474 5468 5462
5608 5605 5602 5597 5597 5596 5593 5592 5593 5592 5589 5586 5587 5586 5584 5583 5582 5578 5573 5568 5564 5557 5555 5559 5555 5551 5552 5538 5533 5531 5526 5522 5521 5514 5506 5500 5493 5485 5476 5470 5464 5458 5451
5615 5613 5610 5605 5602 5600 5597 5595 5594 5595 5591 5590 5591 5588 5587 5585 5582 5578 5572 5567 5561 5555 5552 5548 5544 5541 5539 5534 5529 5523 5517 5515 5512 5509 5500 5490 5482 5476 5467 5461 5455 5448 5441
5621 5617 5616 5614 5611 5607 5603 5601 5600 5598 5596 5595 5595 5593 5591 5587 5582 5576 5569 5562 5558 5549 5544 5545 5541 5531 5526 5523 5519 5512 5507 5500 5500 5491 5486 5477 5471 5464 5456 5450 5442 5435 5428
5626 5622 5619 5616 5613 5609 5607 5604 5602 5599 5597 5596 5593 5591 5590 5586 5581 5573 5569 5562 5560 5552 5545 5539 5535 5525 5521 5514 5506 5501 5493 5492 5488 5483 5478 5469 5462 5453 5444 5437 5430 5423 5416
5630 5626 5622 5620 5616 5613 5613 5610 5605 5602 5599 5596 5593 5591 5589 5582 5574 5570 5565 5559 5552 5550 5543 5539 5529 5513 5511 5503 5502 5496 5488 5483 5476 5471 5463 5457 5451 5444 5437 5428 5419 5413 5403
5629 5625 5624 5622 5619 5619 5617 5609 5603 5601 5598 5596 5592 5587 5582 5574 5571 5565 5559 5556 5556 5548 5541 5533 5526 5520 5510 5499 5491 5482 5470 5465 5459 5458 5452 5442 5434 5431 5423 5415 5409 5399 5386
5626 5627 5624 5621 5619 5616 5611 5603 5597 5593 5590 5590 5588 5584 5580 5577 5567 5561 5551 5545 5537 5532 5525 5523 5515 5502 5494 5491 5473 5461 5455 5447 5443 5436 5433 5427 5415 5415 5408 5401 5392 5381 5369
5629 5625 5621 5616 5612 5614 5606 5599 5591 5587 5585 5585 5581 5578 5574 5567 5559 5548 5541 5527 5519 5511 5508 5504 5494 5483 5474 5467 5457 5448 5438 5431 5423 5416 5406 5405 5399 5398 5393 5384 5373 5362 5352
5626 5623 5617 5611 5607 5605 5592 5590 5582 5578 5573 5561 5557 5556 5554 5547 5541 5534 5522 5508 5499 5490 5479 5469 5467 5466 5454 5449 5433 5430 5418 5409 5403 5396 5389 5387 5383 5379 5376 5368 5355 5345 5334
5622 5615 5604 5587 5580 5580 5575 5574 5570 5561 5547 5538 5532 5529 5526 5522 5515 5509 5503 5495 5483 5468 5461 5450 5440 5434 5425 5418 5414 5410 5404 5395 5383 5376 5370 5361 5356 5350 5357 5351 5340 5328 5317